DW1824 Weather Reports


time (UTC)temp
C
wind
direction
speed
KPH
gust
KPH
rain 1hr
cm
rain 24hr
cm
rain mn
cm
humidity
%
barometer
mb
20260902031345 27 343 0.0 0.0 0.00 0.00 0.00 81 1014.3
20260902030328 27 343 0.0 0.0 0.00 0.00 0.00 80 1014.2
20260902025333 27 343 0.0 0.0 0.00 0.00 0.00 79 1014.2
20260902024339 27 343 0.0 0.0 0.00 0.00 0.00 79 1014.2
20260902023403 27 343 0.0 1.6 0.00 0.00 0.00 80 1014.2
20260902022326 27 345 1.6 3.2 0.00 0.00 0.00 77 1014.0
20260902021336 28 46 0.0 1.6 0.00 0.00 0.00 76 1013.9
20260902020325 28 46 0.0 0.0 0.00 0.00 0.00 75 1013.7
20260902015330 28 47 0.0 0.0 0.00 0.00 0.00 71 1013.4
20260902014334 28 46 0.0 0.0 0.00 0.00 0.00 71 1013.3
20260902013342 28 46 0.0 0.0 0.00 0.00 0.00 71 1013.2
20260902012347 29 46 0.0 0.0 0.00 0.00 0.00 70 1013.1
20260902011353 29 114 0.0 0.0 0.00 0.00 0.00 70 1013.2
20260902010336 29 114 0.0 0.0 0.00 0.00 0.00 70 1013.1
20260902005342 29 114 0.0 1.6 0.00 0.00 0.00 69 1013.0
20260902004347 30 87 0.0 1.6 0.00 0.00 0.00 69 1012.9
20260902003329 30 87 0.0 1.6 0.00 0.00 0.00 68 1012.9
20260902002354 30 10 0.0 4.8 0.00 0.00 0.00 67 1013.0
20260902001339 30 41 0.0 1.6 0.00 0.00 0.00 67 1013.0
20260902000341 31 66 1.6 6.4 0.00 0.00 0.00 65 1012.9
20260901235330 31 87 3.2 4.8 0.00 0.00 0.00 60 1012.9
20260901234336 32 109 1.6 3.2 0.00 0.00 0.00 56 1012.6
20260901233337 32 103 0.0 3.2 0.00 0.00 0.00 55 1012.8
20260901232342 32 116 1.6 3.2 0.00 0.00 0.00 53 1012.7
20260901231325 32 56 0.0 3.2 0.00 0.00 0.00 52 1012.7
20260901230329 32 152 0.0 1.6 0.00 0.00 0.00 54 1012.7
20260901225355 32 89 0.0 1.6 0.00 0.00 0.00 55 1012.8
20260901224323 32 86 0.0 4.8 0.00 0.00 0.00 55 1012.7
20260901223327 32 136 0.0 1.6 0.00 0.00 0.00 54 1012.9
20260901222332 32 116 1.6 6.4 0.00 0.00 0.00 55 1012.9
20260901221335 32 57 0.0 8.0 0.00 0.00 0.00 57 1013.0
20260901220340 33 360 0.0 1.6 0.00 0.00 0.00 56 1013.1
20260901215326 33 311 0.0 3.2 0.00 0.00 0.00 56 1013.1
20260901214331 33 14 0.0 3.2 0.00 0.00 0.00 57 1013.1
20260901213337 33 58 1.6 6.4 0.00 0.00 0.00 55 1013.2
20260901212342 33 354 0.0 6.4 0.00 0.00 0.00 54 1013.1
20260901211326 33 345 1.6 8.0 0.00 0.00 0.00 55 1013.2
20260901210332 33 133 0.0 4.8 0.00 0.00 0.00 54 1013.2
20260901205338 33 14 3.2 9.7 0.00 0.00 0.00 54 1013.4
20260901204323 33 352 0.0 6.4 0.00 0.00 0.00 57 1013.6
20260901203326 33 18 0.0 3.2 0.00 0.00 0.00 56 1013.7
20260901202336 33 101 0.0 3.2 0.00 0.00 0.00 56 1013.8
20260901201342 33 350 1.6 9.7 0.00 0.00 0.00 56 1014.0
20260901200325 33 16 0.0 6.4 0.00 0.00 0.00 56 1014.2
20260901195329 33 353 0.0 3.2 0.00 0.00 0.00 57 1014.3
20260901194335 33 112 3.2 8.0 0.00 0.00 0.00 59 1014.4
20260901193337 33 345 0.0 4.8 0.00 0.00 0.00 60 1014.4
20260901192343 33 97 0.0 3.2 0.00 0.00 0.00 60 1014.4
20260901191333 33 60 3.2 11.3 0.00 0.00 0.00 61 1014.4
20260901190336 33 120 1.6 6.4 0.00 0.00 0.00 62 1014.6
20260901185338 33 46 3.2 6.4 0.00 0.00 0.00 59 1014.6
20260901184342 32 340 0.0 4.8 0.00 0.00 0.00 62 1014.8
20260901183326 32 10 3.2 8.0 0.00 0.00 0.00 62 1015.0
20260901182332 32 5 0.0 6.4 0.00 0.00 0.00 62 1015.0
20260901181358 32 10 1.6 6.4 0.00 0.00 0.00 62 1015.2
20260901180339 32 147 1.6 9.7 0.00 0.00 0.00 63 1015.5
20260901175330 32 324 3.2 9.7 0.00 0.00 0.00 65 1015.6
20260901174336 32 360 0.0 6.4 0.00 0.00 0.00 65 1016.0
20260901173336 32 18 0.0 8.0 0.00 0.00 0.00 65 1016.2
20260901172340 32 37 1.6 8.0 0.00 0.00 0.00 67 1016.3
20260901171328 32 43 4.8 9.7 0.00 0.00 0.00 66 1016.4
20260901170331 31 48 0.0 8.0 0.00 0.00 0.00 69 1016.4
20260901165336 31 345 1.6 4.8 0.00 0.00 0.00 70 1016.5
20260901164327 31 65 4.8 9.7 0.00 0.00 0.00 71 1016.4
20260901163327 30 65 3.2 8.0 0.00 0.00 0.00 71 1016.5
20260901162331 30 5 1.6 6.4 0.00 0.00 0.00 72 1016.7
20260901161335 30 315 0.0 4.8 0.00 0.00 0.00 73 1016.7
20260901160339 30 5 0.0 4.8 0.00 0.00 0.00 73 1016.5
20260901155324 30 360 1.6 4.8 0.00 0.00 0.00 73 1016.5
20260901154326 30 347 1.6 6.4 0.00 0.00 0.00 72 1016.4
20260901153333 30 338 3.2 9.7 0.00 0.00 0.00 72 1016.5
20260901152338 30 286 3.2 14.5 0.00 0.00 0.00 74 1016.4
20260901151343 30 15 1.6 8.0 0.00 0.00 0.00 75 1016.5
20260901150325 29 322 3.2 14.5 0.00 0.00 0.00 77 1016.5
20260901145332 28 319 1.6 12.9 0.00 0.00 0.00 77 1016.6
20260901144335 28 332 4.8 12.9 0.00 0.00 0.00 81 1016.6
20260901143358 28 319 6.4 12.9 0.00 0.00 0.00 83 1016.6
20260901142342 27 297 0.0 9.7 0.00 0.00 0.00 85 1016.6
20260901141331 27 316 0.0 9.7 0.00 0.00 0.00 87 1016.7
20260901140332 26 330 0.0 8.0 0.00 0.00 0.00 89 1016.8
20260901135338 26 5 3.2 9.7 0.00 0.00 0.00 90 1016.8
20260901134404 25 283 3.2 8.0 0.00 0.00 0.00 92 1016.7
20260901133324 25 322 1.6 4.8 0.00 0.00 0.00 93 1016.7
20260901132331 25 316 1.6 4.8 0.00 0.00 0.00 93 1016.7
20260901131357 25 325 0.0 4.8 0.00 0.00 0.00 93 1016.6
20260901130338 25 318 1.6 4.8 0.00 0.00 0.00 93 1016.5
20260901125349 24 334 0.0 3.2 0.00 0.00 0.00 93 1016.5
20260901124333 24 318 0.0 3.2 0.00 0.00 0.00 93 1016.2
20260901123334 24 303 1.6 3.2 0.00 0.00 0.00 94 1016.1
20260901122401 24 326 0.0 3.2 0.00 0.00 0.00 93 1015.9
20260901121324 24 324 0.0 1.6 0.00 0.00 0.00 93 1015.7
20260901120326 24 324 0.0 1.6 0.00 0.00 0.00 93 1015.7
20260901115351 24 5 0.0 3.2 0.00 0.00 0.00 93 1015.5
20260901114337 24 5 0.0 0.0 0.00 0.00 0.00 93 1015.4
20260901113324 24 5 0.0 0.0 0.00 0.00 0.00 93 1015.3
20260901112327 24 5 0.0 0.0 0.00 0.00 0.00 92 1015.3
20260901111333 24 5 0.0 0.0 0.00 0.00 0.00 92 1015.3
20260901110334 24 5 0.0 0.0 0.00 0.00 0.00 92 1015.3
20260901105341 24 5 0.0 0.0 0.00 0.00 0.00 92 1015.3
20260901104325 24 10 0.0 0.0 0.00 0.00 0.00 92 1015.4
20260901103328 24 32 0.0 0.0 0.00 0.00 0.00 92 1015.3
20260901102335 24 116 0.0 0.0 0.00 0.00 0.00 92 1015.2
20260901101342 24 116 0.0 0.0 0.00 0.00 0.00 92 1015.2
20260901100326 24 116 0.0 0.0 0.00 0.00 0.00 91 1015.2
20260901095330 25 116 0.0 0.0 0.00 0.00 0.00 91 1015.1
20260901094336 25 116 0.0 0.0 0.00 0.00 0.00 91 1015.1
20260901093357 25 116 0.0 0.0 0.00 0.00 0.00 91 1015.1
20260901092342 25 117 0.0 0.0 0.00 0.00 0.00 91 1015.2
20260901091326 25 116 0.0 0.0 0.00 0.00 0.00 91 1015.2
20260901090330 25 116 0.0 0.0 0.00 0.00 0.00 92 1015.2
20260901085340 25 116 0.0 0.0 0.00 0.00 0.00 92 1015.3
20260901084326 25 116 0.0 0.0 0.00 0.00 0.00 91 1015.4
20260901082332 25 116 0.0 0.0 0.00 0.00 0.00 90 1015.5
20260901081337 25 116 0.0 0.0 0.00 0.00 0.00 90 1015.6
20260901080339 25 116 0.0 0.0 0.00 0.00 0.00 89 1015.7
20260901075324 25 116 0.0 0.0 0.00 0.00 0.00 89 1015.8
20260901074353 25 116 0.0 0.0 0.00 0.00 0.00 89 1015.8
20260901073335 25 116 0.0 0.0 0.00 0.00 0.00 90 1015.6
20260901072343 25 116 0.0 0.0 0.00 0.00 0.00 89 1015.7
20260901071327 25 116 0.0 0.0 0.00 0.00 0.00 89 1015.7
20260901070350 25 116 0.0 0.0 0.00 0.00 0.00 88 1015.8
20260901065355 26 116 0.0 0.0 0.00 0.00 0.00 88 1015.9
20260901064342 26 116 0.0 0.0 0.00 0.00 0.00 87 1015.9
20260901063324 26 116 0.0 0.0 0.00 0.00 0.00 87 1015.9
20260901062335 26 116 0.0 0.0 0.00 0.00 0.00 86 1016.0
20260901061341 26 116 0.0 1.6 0.00 0.00 0.00 86 1015.8
20260901060326 26 116 1.6 3.2 0.00 0.00 0.00 85 1015.9
20260901055332 26 175 0.0 3.2 0.00 0.00 0.00 85 1015.8
20260901054338 26 175 0.0 0.0 0.00 0.00 0.00 84 1015.6
20260901053338 26 175 0.0 0.0 0.00 0.00 0.00 84 1015.7
20260901052344 26 175 0.0 0.0 0.00 0.00 0.00 84 1015.6
20260901051349 27 175 0.0 0.0 0.00 0.00 0.00 84 1015.6
20260901050336 27 174 0.0 0.0 0.00 0.00 0.00 84 1015.5
20260901045341 27 179 0.0 1.6 0.00 0.00 0.00 83 1015.6
20260901044347 27 177 0.0 3.2 0.00 0.00 0.00 83 1015.4
20260901043329 27 167 0.0 3.2 0.00 0.00 0.00 82 1015.5
20260901042354 27 140 0.0 0.0 0.00 0.00 0.00 81 1015.3
20260901041337 27 195 0.0 0.0 0.00 0.00 0.00 81 1015.3
20260901040342 27 195 0.0 0.0 0.00 0.00 0.00 80 1015.3
20260901035325 27 195 0.0 0.0 0.00 0.00 0.00 80 1015.2
20260901034335 27 186 0.0 0.0 0.00 0.00 0.00 80 1015.1
20260901033339 27 172 0.0 0.0 0.00 0.00 0.00 79 1015.0
20260901032345 28 158 0.0 0.0 0.00 0.00 0.00 79 1015.0